Home   Weather   Stralsund   Past weeks

Flag for Germany Past Weather in Stralsund, Mecklenburg-Western Pomerania, Germany — Yesterday and Last 2 Weeks

Now
61 °F

Partly sunny.


Feels Like: 61 °F
Forecast: 60 / 69 °F
Wind: 13 mph from Southwest

Location: Laage

Current Time: Sep 28, 2016 at 10:35:34 AM

Latest Report: Sep 28, 2016 at 9:20 AM


Visibility: N/A

Pressure: 30.04 "Hg

Humidity: 68%

Dew Point: 50 °F

Location of StralsundLocation

Past Weather in Stralsund — Graph

°F

Stralsund Temperature Yesterday

Maximum temperature yesterday: 70 °F (at 3:20 PM)
Minimum temperature yesterday: 50 °F (at 3:02 AM)
Average temperature yesterday: 58 °F

High & Low Weather Summary for the Past Weeks

 TemperatureHumidityPressure
High86 °F (Sep 13, 1:20 PM)100% (Sep 24, 8:20 AM)30.27 "Hg (Sep 24, 8:20 AM)
Low46 °F (Sep 22, 4:20 AM)38% (Sep 13, 1:20 PM)29.86 "Hg (Sep 16, 4:20 PM)
Average61 °F72%30.11 "Hg
* Reported Sep 13 9:20 AM — Sep 28 9:20 AM, Stralsund, Weather by CustomWeather, © 2016

Note: Actual official high and low records may vary slightly from our data, if they occured in-between our weather recording intervals... More about our weather records

Advertising

Stralsund Weather History for the Previous 24 Hours

Scroll right to see more
 ConditionsComfort  
Time TempWeatherWind HumidityBarometerVisibility
9:20 AM
Wed, Sep 28
61 °FPartly sunny.13 mph68%30.04 "HgN/A
8:20 AM61 °FPartly sunny.14 mph68%30.04 "HgN/A
7:20 AM59 °FPartly sunny.13 mph68%30.04 "HgN/A
6:20 AM59 °FPassing clouds.9 mph72%30.09 "HgN/A
5:53 AM57 °FPassing clouds.8 mph77%30.09 "HgN/A
5:20 AM57 °FPassing clouds.7 mph82%30.12 "HgN/A
4:20 AM55 °FPartly cloudy.5 mph88%30.15 "HgN/A
3:20 AM55 °FPassing clouds.3 mph88%30.15 "HgN/A
2:20 AM55 °FPassing clouds.5 mph88%30.18 "HgN/A
1:20 AM57 °FPassing clouds.6 mph82%30.18 "HgN/A
12:20 AM57 °FPassing clouds.6 mph82%30.21 "HgN/A
11:20 PM
Tue, Sep 27
55 °FPassing clouds.3 mph82%30.24 "HgN/A
10:20 PM57 °FPassing clouds.5 mph77%30.24 "HgN/A
9:20 PM59 °FPassing clouds.3 mph77%30.24 "HgN/A
8:55 PM57 °FPassing clouds.3 mph82%30.24 "HgN/A
8:20 PM57 °FPassing clouds.1 mph82%30.27 "HgN/A
7:20 PM61 °FPassing clouds.3 mph72%30.24 "HgN/A
6:20 PM66 °FPartly sunny.3 mph60%30.27 "HgN/A
5:20 PM70 °FPassing clouds.6 mph50%30.27 "HgN/A
4:20 PM70 °FPassing clouds.6 mph50%30.27 "HgN/A
3:20 PM70 °FPassing clouds.6 mph50%30.27 "HgN/A
2:20 PM68 °FPassing clouds.7 mph56%30.27 "HgN/A
1:20 PM68 °FPassing clouds.5 mph60%30.27 "HgN/A
12:20 PM64 °FPassing clouds.5 mph78%30.27 "Hg5 mi
11:50 AM64 °FPassing clouds.5 mph78%30.27 "Hg4 mi
11:20 AM63 °FFog.5 mph83%30.27 "Hg3 mi
10:57 AM61 °FFog.2 mph88%30.27 "Hg2 mi
10:20 AM59 °FFog.1 mph94%30.27 "Hg1 mi
Weather by CustomWeather, © 2016

See weather overviewHow to use our weather pages